Weather History for KALB - November, 2011

Change the Weather History Date:

Friday, November 4, 2011

  Actual Average Record
Temperature  
Mean Temperature 41 °F 44 °F  
Max Temperature 50 °F 53 °F 76 °F (1987)
Min Temperature 32 °F 34 °F 17 °F (1951)
Degree Days  
Heating Degree Days 24 22  
Month to date heating degree days 88 85  
Since 1 July heating degree days 534 730  
Cooling Degree Days 0 0  
Month to date cooling degree days 0 0  
Year to date cooling degree days 794 598  
Moisture  
Dew Point 30 °F    
Average Humidity 60    
Maximum Humidity 86    
Minimum Humidity 34    
Precipitation  
Precipitation T in 0.11 in 1.23 in (1936)
Month to date precipitation T 0.46  
Year to date precipitation 48.06 33.59  
Snow  
Snow 0.00 in 0.00 in T in (2006)
Month to date snowfall 0.0 0.1  
Since 1 July snowfall 5.4 0.1  
Since 1 September snowfall 5.4 0.1  
Snow Depth 0.00 in    
Sea Level Pressure  
Sea Level Pressure 30.12 in    
Wind  
Wind Speed 9 mph (North)    
Max Wind Speed 21 mph    
Max Gust Speed 26 mph    
Visibility 10 miles    
Events      
T = Trace of Precipitation, MM = Missing Value Source: NWS Daily Summary

Daily Weather History Graph

Daily Weather History Graph

Search for Another Location

Airport or City:

Trip Planner

Search our weather history database for the weather conditions in past years. The results will help you decide how hot, cold, wet, or windy it might be!

Date:

Astronomy

Nov. 04, 2011 Rise Set
Actual Time 7:32 AM EDT 5:44 PM EDT
Civil Twilight 7:03 AM EDT 6:13 PM EDT
Nautical Twilight 6:29 AM EDT 6:47 PM EDT
Astronomical Twilight 5:56 AM EDT 7:20 PM EDT
Moon 2:41 PM EDT 1:34 AM EDT
Length of Visible Light 11h 10m
Length of Day
10h 11m
Waxing Gibbous, 69% of the Moon is Illuminated
Nov 4
Waxing Gibbous
Nov 10
Full
Nov 18
Last Quarter
Nov 25
New
Dec 2
First Quarter

Hourly Weather History & Observations

Time (EDT) Temp. Windchill Dew Point Humidity Pressure Visibility Wind Dir Wind Speed Gust Speed Precip Events Conditions
12:51 AM 48.0 °F - 43.0 °F 83% 29.96 in 10.0 mi North 6.9 mph - N/A   Overcast
1:30 AM 46.4 °F 41.9 °F 42.8 °F 87% 29.96 in 10.0 mi North 9.2 mph - N/A   Overcast
1:51 AM 46.4 °F 41.1 °F 42.8 °F 87% 29.96 in 10.0 mi North 11.5 mph - N/A   Overcast
2:51 AM 44.6 °F 39.2 °F 39.2 °F 81% 29.97 in 10.0 mi North 10.4 mph - N/A   Light Drizzle
3:51 AM 45.0 °F 39.7 °F 37.9 °F 76% 29.98 in 10.0 mi North 10.4 mph - 0.00 in   Overcast
4:33 AM 44.6 °F 39.7 °F 37.4 °F 76% 30.00 in 10.0 mi NNE 9.2 mph - N/A   Overcast
4:51 AM 44.1 °F 40.8 °F 37.9 °F 79% 30.02 in 10.0 mi North 5.8 mph - N/A   Overcast
5:51 AM 43.0 °F 38.8 °F 37.9 °F 82% 30.04 in 10.0 mi NNW 6.9 mph - N/A   Mostly Cloudy
6:51 AM 42.1 °F 37.1 °F 37.0 °F 82% 30.05 in 10.0 mi North 8.1 mph - N/A   Mostly Cloudy
7:51 AM 41.0 °F 35.8 °F 30.9 °F 67% 30.08 in 10.0 mi NNW 8.1 mph - N/A   Mostly Cloudy
8:51 AM 39.9 °F 35.8 °F 30.9 °F 70% 30.11 in 10.0 mi NNW 5.8 mph - N/A   Mostly Cloudy
9:51 AM 43.0 °F 40.3 °F 32.0 °F 65% 30.12 in 10.0 mi NW 4.6 mph - N/A   Scattered Clouds
10:51 AM 44.1 °F 39.5 °F 28.0 °F 53% 30.13 in 10.0 mi NNW 8.1 mph - N/A   Scattered Clouds
11:51 AM 46.9 °F - 26.1 °F 44% 30.12 in 10.0 mi NNW 13.8 mph 17.3 mph N/A   Scattered Clouds
12:51 PM 46.9 °F - 21.9 °F 37% 30.11 in 10.0 mi NNW 9.2 mph 19.6 mph N/A   Scattered Clouds
1:51 PM 48.0 °F - 24.1 °F 39% 30.10 in 10.0 mi North 10.4 mph 19.6 mph N/A   Scattered Clouds
2:51 PM 48.9 °F - 21.0 °F 33% 30.11 in 10.0 mi North 15.0 mph 25.3 mph N/A   Scattered Clouds
3:51 PM 48.0 °F - 21.0 °F 34% 30.12 in 10.0 mi NNW 12.7 mph 21.9 mph N/A   Scattered Clouds
4:51 PM 46.0 °F 39.6 °F 21.0 °F 37% 30.16 in 10.0 mi NNE 15.0 mph 21.9 mph N/A   Partly Cloudy
5:51 PM 43.0 °F 35.7 °F 21.0 °F 42% 30.20 in 10.0 mi North 15.0 mph 20.7 mph N/A   Partly Cloudy
6:51 PM 39.0 °F 33.4 °F 23.0 °F 53% 30.25 in 10.0 mi NNE 8.1 mph - N/A   Clear
7:51 PM 39.0 °F 35.7 °F 21.9 °F 50% 30.27 in 10.0 mi North 4.6 mph - N/A   Scattered Clouds
8:51 PM 36.0 °F 31.1 °F 23.0 °F 59% 30.30 in 10.0 mi North 5.8 mph - N/A   Mostly Cloudy
9:51 PM 37.0 °F 31.0 °F 27.0 °F 67% 30.32 in 10.0 mi North 8.1 mph - N/A   Partly Cloudy
10:51 PM 35.1 °F 31.0 °F 26.1 °F 70% 30.33 in 10.0 mi North 4.6 mph - N/A   Clear
11:51 PM 34.0 °F 29.8 °F 24.1 °F 67% 30.35 in 10.0 mi NW 4.6 mph - N/A   Clear